星链-2290 (STARLINK-2290 )

导读 | 星芒AI

STARLINK-2290 是 SpaceX Starlink 项目中的一颗低轨通信卫星,属于第 22 批发射的星链卫星群。该卫星运行在约 550 公里的近地轨道,旨在为全球用户提供高速互联网服务。作为星链计划的一部分,STARLINK-2290 采用先进推进系统和激光通信技术,以提升网络稳定性和减少延迟。该卫星于 2023 年由猎鹰 9 号火箭成功送入轨道,是 SpaceX 扩展全球宽带覆盖、实现“数字公平”目标的重要一环。

基本信息
目录编号:
47994
目录名称:
STARLINK-2290
国际标识:
2021-024T
轨道中心:
EARTH
卫星名称:
星链-2290
卫星全名:
星链-2290 (STARLINK-2290 )
卫星状态:
已陨落 最后检测时间 2025-02-01
发射日期:
2021-03-24 UTC
国别 :
美国 (US)
星等 :
--
轨道信息
数据来源 国际轨道数据
星历时间: 2025-02-01T18:28:56+0800
轨道信息已过期318天
半长轴: 6543.986km
偏心率: 0.0005191
轨道倾角: 53.033°
近地点辐角 250.827°
升交点赤经 280.889°
平近点角 223.524°
近地点: 162.454km
远地点: 169.248km
周期: 87.806分钟
每日圈数: 16.399828
详细信息
固有亮度:
5
最大亮度:
2.5
卫星平台:
Starlink V1.0
覆盖范围:
全球
运营商:
太空探索技术公司
运营商所在国:
美国
制造商(研发单位):
太空探索技术公司
制造商所在国:
美国
使用方式:
暂无
卫星简介
星链(Starlink)计划是由太空探索技术公司(SpaceX)提出的一个巨型低轨卫星互联网星座项目,计划在2019年至2024年间在太空搭建由约1.2万颗卫星组成的“星链”网络,其中1584颗将部署在地球上空550千米处的近地轨道,并从2020年开始工作。该卫星仍在工作。